Location: Nairn
(57.5833°N, 3.8667°W)
Time: 22:22:48
(UTC+00:00)

Tiros 1 - Pass Details

Date: 29 November 2020
Orbit: 630 x 663 km, 48.4° (Epoch: 22 January)

Event Time Altitude Azimuth Distance (km) Brightness Sun altitude
Rises 18:32:30 0° 254° (WSW) 2,991 12.0 -21.9°
Reaches altitude 10° 18:35:08 10° 242° (WSW) 2,075 10.7 -22.3°
Maximum altitude 18:39:08 27° 185° (S) 1,262 8.7 -22.8°
Enters shadow 18:40:15 24° 162° (SSE) 1,340 8.6 -22.9°
Drops below altitude 10° 18:43:07 10° 128° (SE) 2,059 - -23.3°
Sets 18:45:42 0° 117° (ESE) 2,963 - -23.7°
